[[{"header":{"parameterUnit":"m.s-1","parameterCategory":1,"la1":30.2991,"la2":30.254,"lo1":-89.0895,"lo2":-89.0444,"dy":0.0017,"dx":0.0017,"nx":28,"ny":28,"refTime":"2024-05-05T09:00:00:Z","depth":0,"parameterNumber":2,"parameterNumberName":"U-component_of_WINDS"},"data":[0,0,0,0,0,0,0,0,0,0,0,0,0,0,0,0,0,0,0,0,0,0,0,0,0,0,0,0,0,0,0,0,0,0,0,0,0,0,0,0,0,0,0,0,0,0,0,0,0,0,0,0,0,0,0,0,0,0,-4.7203,-4.7203,0,-4.7244,-4.7244,-4.7245,-4.7204,-4.7202,-4.7201,-4.7199,-4.724,-4.7242,-4.7245,0,0,0,0,0,0,0,0,0,0,0,0,0,-4.7091,-4.7093,-4.7203,-4.7204,-4.7204,-4.7244,-4.7244,-4.7245,-4.7204,-4.7202,-4.72,-4.7199,-4.7239,-4.7242,-4.7245,0,0,0,0,0,0,0,0,0,0,0,0,0,-4.7136,-4.7094,-4.7203,-4.7189,-4.7188,-4.7244,-4.7244,-4.7245,-4.7205,-4.7202,-4.72,-4.7198,-4.7238,-4.7242,-4.7245,-4.7317,0,0,-4.7257,-4.7259,0,0,0,0,0,0,0,0,-4.7134,-4.714,-4.719,-4.719,-4.7189,-4.7216,-4.7219,-4.7269,-4.7205,-4.7198,-4.7199,-4.7197,-4.7234,-4.7238,-4.7251,-4.7319,-4.7321,-4.7258,-4.726,-4.7262,-4.7263,0,0,0,0,0,0,0,-4.7131,-4.7138,-4.7219,-4.7191,-4.719,-4.718,-4.7184,-4.7229,-4.7229,-4.7199,-4.7196,-4.7201,-4.7233,-4.7247,-4.7251,-4.7321,-4.7257,-4.7261,-4.7263,-4.7265,-4.7452,-4.7455,0,0,0,0,0,0,-4.7129,-4.7136,-4.7218,-4.722,-4.7155,-4.7184,-4.7189,-4.721,-4.7228,-4.7229,-4.7203,-4.7199,-4.7242,-4.7247,-4.7253,-4.7338,-4.7261,-4.7265,-4.7267,-4.745,-4.7453,-4.7456,0,0,0,0,0,0,-4.7127,-4.7137,-4.7216,-4.7178,-4.7187,-4.7189,-4.7213,-4.7212,-4.7226,-4.7232,-4.7232,-4.7218,-4.724,-4.7247,-4.7302,-4.7339,-4.7267,-4.727,-4.7446,-4.7451,-4.7454,-4.7509,0,0,0,0,0,0,-4.7124,-4.7136,-4.7163,-4.7178,-4.7189,-4.7264,-4.7215,-4.7215,-4.7233,-4.7228,-4.7245,-4.7246,-4.7239,-4.7296,-4.7306,-4.7343,-4.7273,-4.7443,-4.7448,-4.7453,-4.7504,-4.7514,-4.7523,0,0,0,0,0,-4.712,-4.7176,-4.7164,-4.7174,-4.7223,-4.7267,-4.7273,-4.7264,-4.7236,-4.7263,-4.7268,-4.7245,-4.7334,-4.7302,-4.7312,-4.7351,-4.7441,-4.7447,-4.7453,-4.7499,-4.7512,-4.7523,0,0,0,0,0,0,-4.7163,-4.7177,-4.7165,-4.7228,-4.7247,-4.726,-4.7293,-4.7277,-4.7304,-4.7298,-4.7286,-4.729,-4.7348,-4.7356,-4.732,-4.7423,-4.7383,-4.7391,-4.7415,-4.7427,-4.7437,-4.7433,-4.7277,0,0,0,0,0,-4.718,-4.7215,-4.7226,-4.728,-4.729,-4.7291,-4.7309,-4.7301,-4.732,-4.7327,-4.7335,-4.7354,-4.7387,-4.7408,-4.7438,-4.7506,-4.7509,-4.7538,-4.7548,-4.7556,-4.7562,-4.76,-4.7613,-4.7476,-4.7475,-4.7475,0,0,-4.7215,-4.7228,-4.725,-4.7289,-4.7303,-4.7339,-4.7297,-4.7337,-4.7364,-4.7333,-4.7385,-4.7393,-4.7413,-4.7475,-4.7503,-4.7483,-4.7602,-4.7564,-4.757,-4.7572,-4.7608,-4.7621,-4.7632,-4.748,-4.7479,-4.7478,0,0,-4.7297,-4.7311,-4.7357,-4.7373,-4.7394,-4.7395,-4.7407,-4.7423,-4.7427,-4.7479,-4.7458,-4.749,-4.7546,-4.7561,-4.7577,-4.7669,-4.765,-4.768,-4.773,-4.7767,-4.7777,-4.7787,-4.7819,-4.7831,-4.7687,-4.7687,-4.7687,0,-4.7338,-4.7391,-4.7383,-4.7425,-4.7444,-4.742,-4.7468,-4.7483,-4.7513,-4.7527,-4.7505,-4.7576,-4.7588,-4.7653,-4.7676,-4.769,-4.7703,-4.7676,-4.7777,-4.7786,-4.7795,-4.7826,-4.7838,-4.769,-4.769,-4.769,-4.7689,0,-4.744,-4.7478,-4.7514,-4.7545,-4.7567,-4.7612,-4.7612,-4.7636,-4.7627,-4.763,-4.7685,-4.77,-4.7733,-4.7748,-4.774,-4.7814,-4.7801,-4.7778,-4.7737,-4.7811,-4.784,-4.7852,-4.7695,-4.7694,-4.7693,-4.7692,0,0,-4.7546,-4.7575,-4.7588,-4.7603,-4.7627,-4.7656,-4.7701,-4.7734,-4.7755,-4.7778,-4.7815,-4.7865,-4.7845,-4.7863,-4.7856,-4.7889,-4.7962,-4.7863,-4.7863,-4.7879,-4.8044,-4.806,-4.8074,-4.7951,-4.7953,-4.7955,-4.8042,0,-4.7628,-4.7705,-4.7702,-4.7774,-4.781,-4.779,-4.7829,-4.7849,-4.7854,-4.7885,-4.7891,-4.7926,-4.7897,-4.7908,-4.794,-4.7946,-4.7994,-4.794,-4.7984,-4.7986,-4.7977,-4.8089,-4.8105,-4.8186,-4.8054,-4.8056,-4.8057,0,-4.7733,-4.7761,-4.7837,-4.7858,-4.7873,-4.7908,-4.7939,-4.797,-4.7992,-4.7994,-4.8016,-4.8005,-4.8051,-4.8012,-4.8076,-4.8039,-4.8058,-4.8064,-4.8067,-4.8069,-4.8024,-4.8092,-4.8212,-4.8224,-4.8075,-4.8073,-4.8072,0,-4.7802,-4.7859,-4.7912,-4.7925,-4.7951,-4.7977,-4.7989,-4.8009,-4.803,-4.8058,-4.8072,-4.8105,-4.8122,-4.8149,-4.8148,-4.8119,-4.8212,-4.8173,-4.8214,-4.8215,-4.8232,-4.8231,-4.8356,-4.8248,-4.8248,-4.8248,-4.8247,0,-4.7892,-4.7939,-4.7943,-4.7976,-4.8029,-4.8025,-4.8078,-4.8088,-4.8107,-4.8141,-4.8127,-4.816,-4.8157,-4.8191,-4.8191,-4.8243,-4.8252,-4.8254,-4.8253,-4.8254,-4.8254,-4.8264,-4.8258,-4.8251,-4.825,-4.825,-4.8249,0,-4.7976,-4.7981,-4.8038,-4.8059,-4.8066,-4.8104,-4.8122,-4.8153,-4.8159,-4.8203,-4.8213,-4.8222,-4.8261,-4.8263,-4.8308,-4.8308,-4.8372,-4.8366,-4.8364,-4.8362,-4.8403,-4.8399,-4.8538,-4.8556,-4.8438,-4.8439,-4.844,0,-4.8032,-4.8069,-4.8095,-4.8117,-4.8131,-4.8167,-4.8189,-4.8188,-4.8212,-4.8243,-4.827,-4.8309,-4.8338,-4.8402,-4.8412,-4.8447,-4.844,-4.8487,-4.8445,-4.8446,-4.844,-4.8437,-4.844,-4.8494,-4.8495,-4.8496,-4.8497,0,-4.8132,-4.8133,-4.8165,-4.82,-4.8227,-4.8254,-4.8279,-4.8298,-4.83,-4.8328,-4.8368,-4.8392,-4.8439,-4.8477,-4.8512,-4.8524,-4.8511,-4.8511,-4.8522,-4.8522,-4.852,-4.8521,-4.8384,-4.8507,-4.8506,-4.8505,-4.8505,-4.8504,-4.8203,-4.8234,-4.8258,-4.8295,-4.8315,-4.8339,-4.837,-4.8381,-4.8415,-4.8453,-4.8451,-4.8496,-4.852,-4.8565,-4.8581,-4.8617,-4.8601,-4.8617,-4.8621,-4.8625,-4.8628,-4.8516,-4.8623,-4.8623,-4.8623,-4.8622,-4.8622,0,-4.83,-4.8315,-4.835,-4.8386,-4.8416,-4.8404,-4.8431,-4.8457,-4.8497,-4.8521,-4.8551,-4.8599,-4.8636,-4.8651,-4.8688,-4.8714,-4.8709,-4.8724,-4.872,-4.8724,-4.8641,-4.8627,-4.8727,-4.8727,-4.8727,-4.8727,-4.8727,-4.8727,-4.8354,-4.8407,-4.8412,-4.8476,-4.8491,-4.8535,-4.8552,-4.8575,-4.8594,-4.8647,-4.8679,-4.8689,-4.871,-4.8749,-4.8783,-4.8787,-4.8801,-4.8818,-4.8818,-4.874,-4.8729,-4.8719,-4.8706,-4.8821,-4.8821,-4.8898,-4.8899,-4.8899]},{"header":{"parameterUnit":"m.s-1","parameterCategory":1,"la1":30.2991,"la2":30.254,"lo1":-89.0895,"lo2":-89.0444,"dy":0.0017,"dx":0.0017,"nx":28,"ny":28,"refTime":"2024-05-05T09:00:00:Z","depth":0,"parameterNumber":3,"parameterNumberName":"V-component_of_WINDS"},"data":[0,0,0,0,0,0,0,0,0,0,0,0,0,0,0,0,0,0,0,0,0,0,0,0,0,0,0,0,0,0,0,0,0,0,0,0,0,0,0,0,0,0,0,0,0,0,0,0,0,0,0,0,0,0,0,0,0,0,3.8713,3.8714,0,3.8714,3.8714,3.8714,3.8756,3.8757,3.8758,3.8759,3.8753,3.8752,3.8751,0,0,0,0,0,0,0,0,0,0,0,0,0,3.8743,3.8742,3.8713,3.8714,3.8714,3.8714,3.8714,3.8714,3.8756,3.8757,3.8758,3.876,3.8754,3.8752,3.8751,0,0,0,0,0,0,0,0,0,0,0,0,0,3.8735,3.8742,3.8713,3.8734,3.8736,3.8714,3.8714,3.8714,3.8755,3.8757,3.8759,3.876,3.8754,3.8753,3.8751,3.8707,0,0,3.8745,3.8745,0,0,0,0,0,0,0,0,3.8736,3.8734,3.8731,3.8733,3.8735,3.8737,3.8723,3.8712,3.8755,3.8748,3.8759,3.8761,3.8746,3.8745,3.8741,3.8707,3.8706,3.8745,3.8744,3.8743,3.8743,0,0,0,0,0,0,0,3.8736,3.8734,3.8714,3.8731,3.8733,3.8742,3.8743,3.8721,3.8737,3.8749,3.8752,3.8752,3.8747,3.8743,3.8742,3.8706,3.8745,3.8744,3.8743,3.8742,3.8638,3.8636,0,0,0,0,0,0,3.8735,3.8734,3.8714,3.8714,3.874,3.874,3.8741,3.8734,3.8738,3.874,3.875,3.8754,3.8745,3.8744,3.8742,3.8692,3.8743,3.8742,3.8741,3.864,3.8637,3.8636,0,0,0,0,0,0,3.8735,3.8732,3.8714,3.8725,3.8723,3.8738,3.873,3.8734,3.873,3.8739,3.8742,3.8743,3.8746,3.8744,3.8716,3.8693,3.8741,3.8739,3.8642,3.8639,3.8637,3.8592,0,0,0,0,0,0,3.8736,3.8732,3.8717,3.8724,3.8723,3.8689,3.8729,3.8732,3.8727,3.8731,3.8733,3.8735,3.8748,3.8719,3.8714,3.8691,3.8738,3.8644,3.864,3.8637,3.8596,3.8588,3.8582,0,0,0,0,0,3.8737,3.8702,3.8716,3.8713,3.8704,3.8688,3.8687,3.8704,3.8725,3.8709,3.8716,3.8735,3.8696,3.8715,3.8711,3.8687,3.8645,3.8641,3.8638,3.8599,3.859,3.8582,0,0,0,0,0,0,3.8688,3.8703,3.8719,3.8686,3.8686,3.8695,3.8675,3.8693,3.8685,3.869,3.8709,3.8709,3.8678,3.868,3.8701,3.8646,3.8674,3.8669,3.8646,3.8638,3.8631,3.8631,3.8737,0,0,0,0,0,3.8674,3.8662,3.8675,3.8645,3.8645,3.866,3.8654,3.8667,3.8667,3.8666,3.8671,3.8668,3.8656,3.8646,3.8635,3.8596,3.8597,3.8577,3.857,3.8565,3.856,3.8541,3.8533,3.8623,3.8623,3.8623,0,0,3.8644,3.8651,3.8642,3.8636,3.8637,3.8623,3.8659,3.8642,3.8632,3.8663,3.8638,3.8641,3.8639,3.8607,3.8592,3.8607,3.8536,3.856,3.8555,3.8554,3.8537,3.8528,3.8521,3.862,3.8621,3.8621,0,0,3.8583,3.8587,3.8563,3.8565,3.8568,3.8579,3.8573,3.858,3.8584,3.856,3.8584,3.8571,3.8548,3.8547,3.8543,3.8484,3.8502,3.8479,3.8443,3.8425,3.8418,3.8412,3.8392,3.8384,3.8475,3.8475,3.8475,0,3.8545,3.8526,3.8548,3.8531,3.8528,3.8558,3.8534,3.8534,3.8532,3.8528,3.8545,3.8519,3.852,3.8488,3.8474,3.8469,3.8464,3.8479,3.8417,3.8411,3.8406,3.8387,3.8379,3.8472,3.8472,3.8473,3.8473,0,3.848,3.8467,3.8447,3.8448,3.8443,3.8421,3.8439,3.8431,3.8445,3.8454,3.843,3.8432,3.8423,3.8416,3.8428,3.8386,3.8396,3.8414,3.8444,3.8394,3.8377,3.837,3.8468,3.8469,3.847,3.8471,0,0,3.8387,3.8403,3.8395,3.8397,3.8403,3.8393,3.8373,3.8367,3.836,3.8357,3.8342,3.8323,3.8342,3.8337,3.835,3.8334,3.8289,3.8355,3.8355,3.8343,3.8244,3.823,3.8221,3.8301,3.8299,3.8298,3.8244,0,3.8329,3.83,3.8319,3.8286,3.8274,3.8304,3.8287,3.8288,3.8296,3.8287,3.8295,3.8282,3.8307,3.8305,3.829,3.8297,3.8269,3.8301,3.8285,3.8285,3.8286,3.8212,3.8197,3.8146,3.8237,3.8236,3.8235,0,3.8257,3.8256,3.8222,3.8233,3.8229,3.8213,3.8211,3.8201,3.8203,3.821,3.8207,3.8224,3.8205,3.8234,3.8208,3.823,3.8225,3.8227,3.8226,3.8225,3.8257,3.821,3.813,3.8123,3.8225,3.8226,3.8226,0,3.8195,3.8184,3.8163,3.8163,3.8175,3.8164,3.8168,3.8172,3.8167,3.8164,3.8161,3.8154,3.8151,3.8145,3.816,3.8179,3.8132,3.8162,3.8137,3.8137,3.8126,3.8127,3.8045,3.8121,3.8121,3.8121,3.8121,0,3.8129,3.8107,3.8136,3.8122,3.8099,3.8122,3.8097,3.8104,3.8108,3.8096,3.812,3.8108,3.8129,3.8118,3.8129,3.8107,3.8105,3.8109,3.8113,3.8108,3.8107,3.8105,3.8109,3.8119,3.812,3.812,3.8121,0,3.8055,3.8073,3.8053,3.8067,3.807,3.8052,3.8063,3.8051,3.8062,3.8047,3.8044,3.806,3.8049,3.8064,3.8054,3.8062,3.8031,3.8039,3.8031,3.8034,3.8009,3.8012,3.7923,3.7913,3.7995,3.7994,3.7994,0,3.8013,3.7997,3.8011,3.8006,3.8009,3.8,3.7997,3.8019,3.8014,3.8017,3.8004,3.7997,3.7992,3.7973,3.7983,3.7975,3.7984,3.7954,3.7983,3.7979,3.7985,3.7987,3.7986,3.7948,3.7947,3.7946,3.7945,0,3.7935,3.7946,3.7941,3.794,3.7936,3.7935,3.7936,3.793,3.7953,3.7946,3.7938,3.7934,3.7926,3.7918,3.7913,3.7916,3.7934,3.7936,3.793,3.7925,3.7922,3.7925,3.8016,3.7938,3.7939,3.7939,3.794,3.794,3.7877,3.7865,3.7874,3.7868,3.7872,3.7873,3.7863,3.7874,3.7867,3.7864,3.7877,3.7865,3.7869,3.7866,3.7866,3.7857,3.787,3.7861,3.7859,3.7857,3.7854,3.7923,3.7856,3.7856,3.7856,3.7857,3.7857,0,3.7802,3.7809,3.7804,3.7807,3.7802,3.7822,3.7825,3.782,3.781,3.7813,3.7809,3.7799,3.7792,3.7802,3.7796,3.7787,3.7795,3.7784,3.7786,3.7786,3.7842,3.7848,3.7778,3.7778,3.7778,3.7778,3.7778,3.7778,3.7762,3.7745,3.7756,3.7741,3.7748,3.7739,3.7739,3.774,3.7743,3.7732,3.7727,3.7734,3.774,3.7736,3.773,3.7733,3.773,3.7717,3.7723,3.7774,3.7782,3.7789,3.7796,3.7716,3.7716,3.7668,3.7668,3.7668]}]]